Back to catalog

INTELSAT 15

AliveCommunicationsGEO
NORAD 36106·PAYLOAD· XX

Launched Nov 30, 2009 from Baikonur Cosmodrome

Loading…

TLE

FreshSource: CelesTrak SupGP

Epoch: Sep 14, 2026, 00:00 UTC

1 36106C 09067A   26257.00000000 -.00000095  00000+0  00000+0 0  2570
2 36106   0.0000 171.3649 0002293   4.2237 262.5401  1.00271578    15

Track INTELSAT 15 in real time with AllMySat

Download on the App Store